Location: *
(50.6089°N, 2.2719°E)
Time: 13:31:26
(UTC+00:00)

Cosmos 1992 Rocket - Pass Details

Date: 18 October 2019
Orbit: 760 x 765 km, 74.0° (Epoch: 16 November)

Event Time Altitude Azimuth Distance (km) Brightness Sun altitude
Rises 17:53:39 0° 208° (SSW) 3,217 7.7 -10.3°
Reaches altitude 10° 17:56:02 10° 210° (SSW) 2,294 6.9 -10.6°
Maximum altitude 18:01:14 73° 295° (WNW) 800 4.3 -11.5°
Drops below altitude 10° 18:06:28 10° 21° (NNE) 2,307 6.3 -12.3°
Sets 18:08:52 0° 24° (NNE) 3,236 7.0 -12.7°
